Location: Newark
(41.8083°N, 72.2500°W)
Time: 00:21:41
(UTC+00:00)

Transit 2A - Pass Details

Date: 08 December 2021
Orbit: 591 x 967 km, 66.7° (Epoch: 23 January)

Event Time Altitude Azimuth Distance (km) Brightness Sun altitude
Exits shadow 10:07:22 - 347° (NNW) 3,188 9.0 -21.0°
Reaches altitude 10° 10:10:09 10° 8° (N) 2,714 8.8 -20.5°
Maximum altitude 10:12:21 12° 28° (NNE) 2,580 8.9 -20.1°
Drops below altitude 10° 10:14:31 10° 49° (NE) 2,697 9.3 -19.7°
Sets 10:19:10 0° 80° (E) 3,596 10.7 -18.9°
